{"data":{"norad_id":68735,"intl_designator":"2026-082H","name":"STARLINK-37339","alt_names":[],"object_type":"PAYLOAD","status":"ACTIVE","operator":null,"country":"US","launch_date":"2026-04-15","launch_site_code":"AFWTR","launch_vehicle":null,"mission":null,"orbit_class":"UNKNOWN","rcs_meters":null,"size_class":null,"mass_kg":null,"dimensions":null,"purposes":["comms"],"wikipedia_slug":null,"has_3d_model":false,"image_url":null,"decayed_at":null,"tle_current":{"epoch":"2026-09-19T21:03:18.558432Z","epoch_age_seconds":95145,"freshness":"FRESH","line1":"1 68735U 26082H   26262.87729813  .00011320  00000+0  35227-3 0  9998","line2":"2 68735  97.2840 125.0888 0003219  98.4181 261.7427 15.33458061 24213","mean_motion":15.33458061,"eccentricity":0.0003219,"inclination_deg":97.284,"raan_deg":125.0888,"arg_perigee_deg":98.4181,"mean_anomaly_deg":261.7427,"bstar":0.00035227,"rev_number":2421,"period_min":93.905404824762,"perigee_km":463.30134626804,"apogee_km":467.70728254626,"semimajor_km":6843.6413144071,"source":"CELESTRAK","updated_at":"2026-09-20T09:00:43.991515Z"}}}